Date String (YYYY-MM-DD hh:mm:ss) UTC,Instrument flags,absolute air pressure of the measurement (hPa),sample flow rate (lpm),inlet stack bypass flow (lpm),air temperature of the measurement (°C),ambient temperature measured by the external sensor (°C),aerosol sample conditioner tube jacket temperature (°C),OPC LED temperature (°C),internal box temperature (°C),relative humidity of the measurement (%),span deviation,mass concentration of particles derived from Lorenz-Mie calculation of OPC scattering (μg/m³),mass concentration of particles derived from Lorenz-Mie calculation of OPC scattering (μg/m³),mass concentration of particles derived from Lorenz-Mie calculation of OPC scattering (μg/m³)
DateTimeUTC,F1_M11,P_M11,Q1_M11,Q2_M11,T1_M11,T2_M11,T3_M11,T4_M11,T5_M11,U1_M11,ZSPAN_M11,X0_M11,X2_M11,X1_M11
2024-05-08 04:00:00,SystemResetWarning,0819.4,5.00,000.00,022.5,021.8,000.0,030.7,024.2,011.8,0000.0,0006.85,0001.73,0000.80
2024-05-08 04:01:00,SystemResetWarning,0819.3,5.00,000.00,022.5,021.8,000.0,030.7,024.2,011.7,0000.0,0005.58,0001.69,0000.79
2024-05-08 04:02:00,SystemResetWarning,0819.4,5.01,000.00,022.5,021.8,000.0,030.7,024.2,011.7,0000.0,0005.32,0001.63,0000.79
2024-05-08 04:03:00,SystemResetWarning,0819.4,5.01,000.00,022.5,021.8,000.0,030.7,024.2,011.8,0000.0,0006.58,0001.68,0000.79
2024-05-08 04:04:00,SystemResetWarning,0819.4,5.00,000.00,022.5,021.8,000.0,030.7,024.2,011.9,0000.0,0007.48,0001.73,0000.80
2024-05-08 04:05:00,SystemResetWarning,0819.5,5.00,000.00,022.5,021.8,000.0,030.7,024.2,011.9,0000.0,0007.72,0001.74,0000.83
2024-05-08 04:06:00,SystemResetWarning,0819.4,5.00,000.00,022.5,021.8,000.0,030.7,024.2,011.8,0000.0,0008.74,0001.78,0000.86
2024-05-08 04:07:00,SystemResetWarning,0819.3,5.00,000.00,022.5,021.8,000.0,030.7,024.2,011.9,0000.0,0008.86,0001.85,0000.88
2024-05-08 04:08:00,SystemResetWarning,0819.4,4.99,000.00,022.5,021.9,000.0,030.7,024.2,011.9,0000.0,0008.87,0001.87,0000.89
2024-05-08 04:09:00,SystemResetWarning,0819.3,4.99,000.00,022.5,021.9,000.0,030.7,024.2,011.9,0000.0,0008.62,0001.95,0000.91
2024-05-08 04:10:00,SystemResetWarning,0819.1,5.01,000.00,022.5,021.9,000.0,030.7,024.2,011.8,0000.0,0008.24,0002.04,0000.92
2024-05-08 04:11:00,SystemResetWarning,0819.0,5.01,000.00,022.5,021.9,000.0,030.7,024.2,011.9,0000.0,0008.22,0002.03,0000.93
2024-05-08 04:12:00,SystemResetWarning,0819.0,4.99,000.00,022.5,021.9,000.0,030.7,024.2,011.8,0000.0,0008.19,0002.05,0000.95
2024-05-08 04:13:00,SystemResetWarning,0819.1,4.98,000.00,022.5,021.8,000.0,030.7,024.2,011.7,0000.0,0008.20,0002.10,0000.97
2024-05-08 04:14:00,SystemResetWarning,0819.2,5.00,000.00,022.5,021.8,000.0,030.7,024.2,011.8,0000.0,0008.17,0002.13,0000.98
2024-05-08 04:15:00,SystemResetWarning,0819.1,5.01,000.00,022.5,021.8,000.0,030.7,024.2,011.9,0000.0,0007.65,0002.15,0000.97
2024-05-08 04:16:00,SystemResetWarning,0819.2,5.00,000.00,022.5,021.8,000.0,030.7,024.2,011.8,0000.0,0007.48,0002.12,0000.95
2024-05-08 04:17:00,SystemResetWarning,0819.1,4.99,000.00,022.5,021.8,000.0,030.7,024.2,011.7,0000.0,0005.53,0002.00,0000.92
2024-05-08 04:18:00,SystemResetWarning,0819.2,5.00,000.00,022.5,021.8,000.0,030.7,024.2,011.8,0000.0,0005.50,0001.92,0000.90
2024-05-08 04:19:00,SystemResetWarning,0819.2,5.01,000.00,022.5,021.8,000.0,030.7,024.2,011.8,0000.0,0005.27,0001.85,0000.89
2024-05-08 04:20:00,SystemResetWarning,0819.1,5.01,000.00,022.4,021.8,000.0,030.7,024.2,011.8,0000.0,0005.21,0001.82,0000.87
2024-05-08 04:21:00,SystemResetWarning,0819.0,5.01,000.00,022.4,021.8,000.0,030.7,024.2,011.8,0000.0,0004.91,0001.74,0000.86
2024-05-08 04:22:00,SystemResetWarning,0819.0,4.99,000.00,022.4,021.7,000.0,030.7,024.1,011.9,0000.0,0005.20,0001.67,0000.85
2024-05-08 04:23:00,SystemResetWarning,0819.0,4.99,000.00,022.4,021.7,000.0,030.7,024.1,011.9,0000.0,0005.35,0001.69,0000.85
2024-05-08 04:24:00,SystemResetWarning,0819.0,4.99,000.00,022.4,021.7,000.0,030.7,024.1,011.7,0000.0,0005.36,0001.71,0000.84
2024-05-08 04:25:00,SystemResetWarning,0819.0,5.00,000.00,022.4,021.7,000.0,030.6,024.1,011.7,0000.0,0004.61,0001.66,0000.83
2024-05-08 04:26:00,SystemResetWarning,0819.0,5.01,000.00,022.4,021.7,000.0,030.6,024.1,011.8,0000.0,0004.29,0001.63,0000.84
2024-05-08 04:27:00,SystemResetWarning,0819.1,5.01,000.00,022.4,021.6,000.0,030.7,024.1,012.0,0000.0,0004.40,0001.64,0000.84
2024-05-08 04:28:00,SystemResetWarning,0819.1,5.00,000.00,022.4,021.6,000.0,030.7,024.1,012.0,0000.0,0006.25,0001.70,0000.85
2024-05-08 04:29:00,SystemResetWarning,0819.1,5.00,000.00,022.4,021.5,000.0,030.7,024.1,012.1,0000.0,0006.97,0001.69,0000.84
2024-05-08 04:30:00,SystemResetWarning,0819.1,5.00,000.00,022.3,021.5,000.0,030.7,024.1,012.2,0000.0,0007.01,0001.70,0000.83
2024-05-08 04:31:00,SystemResetWarning,0819.1,4.99,000.00,022.3,021.5,000.0,030.7,024.0,012.2,0000.0,0006.89,0001.67,0000.83
2024-05-08 04:32:00,SystemResetWarning,0819.2,5.00,000.00,022.3,021.5,000.0,030.7,024.0,012.2,0000.0,0006.81,0001.63,0000.84
2024-05-08 04:33:00,SystemResetWarning,0819.2,4.99,000.00,022.3,021.4,000.0,030.7,024.0,012.2,0000.0,0007.09,0001.67,0000.85
2024-05-08 04:34:00,SystemResetWarning,0819.2,5.01,000.00,022.3,021.4,000.0,030.7,023.9,012.3,0000.0,0007.52,0001.62,0000.83
2024-05-08 04:35:00,SystemResetWarning,0819.3,5.01,000.00,022.2,021.4,000.0,030.7,024.0,012.3,0000.0,0007.41,0001.57,0000.82
2024-05-08 04:36:00,SystemResetWarning,0819.3,5.01,000.00,022.2,021.4,000.0,030.7,024.0,012.3,0000.0,0007.36,0001.54,0000.81
2024-05-08 04:37:00,SystemResetWarning,0819.3,5.00,000.00,022.2,021.4,000.0,030.7,024.0,012.4,0000.0,0007.36,0001.58,0000.81
2024-05-08 04:38:00,SystemResetWarning,0819.3,4.99,000.00,022.2,021.4,000.0,030.7,023.9,012.3,0000.0,0007.27,0001.59,0000.80
2024-05-08 04:39:00,SystemResetWarning,0819.3,4.99,000.00,022.2,021.4,000.0,030.7,023.9,012.2,0000.0,0005.65,0001.59,0000.81
2024-05-08 04:40:00,SystemResetWarning,0819.3,4.99,000.00,022.2,021.3,000.0,030.7,023.9,012.2,0000.0,0004.82,0001.63,0000.82
2024-05-08 04:41:00,SystemResetWarning,0819.4,5.00,000.00,022.2,021.3,000.0,030.6,023.9,012.3,0000.0,0004.77,0001.63,0000.82
2024-05-08 04:42:00,SystemResetWarning,0819.3,5.01,000.00,022.2,021.3,000.0,030.6,023.9,012.3,0000.0,0005.18,0001.64,0000.82
2024-05-08 04:43:00,SystemResetWarning,0819.3,5.01,000.00,022.1,021.3,000.0,030.6,023.8,012.2,0000.0,0006.03,0001.65,0000.81
2024-05-08 04:44:00,SystemResetWarning,0819.3,5.00,000.00,022.1,021.3,000.0,030.6,023.9,012.1,0000.0,0005.96,0001.65,0000.80
2024-05-08 04:45:00,SystemResetWarning,0819.2,5.00,000.00,022.1,021.3,000.0,030.6,023.9,012.2,0000.0,0005.40,0001.69,0000.81
2024-05-08 04:46:00,SystemResetWarning,0819.1,5.00,000.00,022.1,021.3,000.0,030.6,023.9,012.3,0000.0,0005.43,0001.68,0000.80
2024-05-08 04:47:00,SystemResetWarning,0819.2,4.99,000.00,022.1,021.2,000.0,030.6,023.8,012.4,0000.0,0005.39,0001.64,0000.81
2024-05-08 04:48:00,SystemResetWarning,0819.1,5.00,000.00,022.1,021.2,000.0,030.6,023.8,012.3,0000.0,0005.48,0001.62,0000.81
2024-05-08 04:49:00,SystemResetWarning,0819.1,5.01,000.00,022.1,021.2,000.0,030.6,023.8,012.3,0000.0,0005.53,0001.63,0000.81
2024-05-08 04:50:00,SystemResetWarning,0819.0,5.00,000.00,022.1,021.2,000.0,030.6,023.8,012.3,0000.0,0005.69,0001.66,0000.80
2024-05-08 04:51:00,SystemResetWarning,0819.1,5.01,000.00,022.0,021.2,000.0,030.6,023.8,012.1,0000.0,0005.72,0001.63,0000.79
2024-05-08 04:52:00,SystemResetWarning,0819.0,5.01,000.00,022.0,021.3,000.0,030.5,023.7,012.2,0000.0,0005.81,0001.64,0000.79
2024-05-08 04:53:00,SystemResetWarning,0819.0,4.99,000.00,022.0,021.3,000.0,030.5,023.8,012.2,0000.0,0005.75,0001.66,0000.79
2024-05-08 04:54:00,SystemResetWarning,0819.0,4.99,000.00,022.0,021.3,000.0,030.5,023.8,012.1,0000.0,0005.83,0001.74,0000.79
2024-05-08 04:55:00,SystemResetWarning,0819.0,5.00,000.00,022.0,021.3,000.0,030.5,023.8,012.2,0000.0,0004.67,0001.76,0000.79
2024-05-08 04:56:00,SystemResetWarning,0819.1,5.00,000.00,022.0,021.3,000.0,030.5,023.8,012.3,0000.0,0004.41,0001.66,0000.78
2024-05-08 04:57:00,SystemResetWarning,0819.1,5.00,000.00,022.0,021.2,000.0,030.5,023.7,012.4,0000.0,0004.34,0001.63,0000.77
2024-05-08 04:58:00,SystemResetWarning,0819.1,5.00,000.00,022.0,021.2,000.0,030.5,023.7,012.4,0000.0,0004.39,0001.65,0000.77
2024-05-08 04:59:00,SystemResetWarning,0819.2,5.00,000.00,022.0,021.2,000.0,030.5,023.8,012.5,0000.0,0004.23,0001.63,0000.77
